Regional Weather Roundup
Issued by NWS

Home | Current Version | Previous Version | Graphics & Text | Print | Product List | Glossary On
Versions: 1 2 3 4 5 6 7 8 9 10 11 12 13 14 15 16 17 18 19 20 21 22 23 24 25 26 27 28 29 30 31 32 33 34 35 36 37 38 39 40 41 42 43 44 45 46 47 48 49 50
000
ASUS43 KFSD 201410
RWRSD

WEATHER ROUNDUP FOR SOUTH DAKOTA
NATIONAL WEATHER SERVICE SIOUX FALLS SD
900 AM CDT FRI OCT 20 2017

NOTE: "FAIR" INDICATES FEW OR NO CLOUDS BELOW 12,000 FEET WITH NO
SIGNIFICANT WEATHER AND/OR OBSTRUCTIONS TO VISIBILITY.


SDZ001>005-009-010-012>017-201500-
NORTHWEST AND NORTH CENTRAL SOUTH DAKOTA

CITY           SKY/WX    TMP DP  RH WIND       PRES   REMARKS
BUFFALO          N/A     54  26  34 NW5       29.41F
MOBRIDGE       CLEAR     58  48  69 S17       29.49F
$$

SDZ012>016-024>037-041>051-057-063-072>074-201500-
SOUTHWEST AND SOUTH CENTRAL SOUTH DAKOTA

CITY           SKY/WX    TMP DP  RH WIND       PRES   REMARKS
RAPID CTY ARPT PTCLDY    48  32  53 CALM      29.55F
PIERRE         CLEAR     56  47  71 SE10      29.56F
CUSTER         CLOUDY    54  27  35 W6        29.67F
ELLSWORTH AFB  PTCLDY    57  29  34 S13       29.53F
PHILIP         CLEAR     56  46  69 VRB6      29.53F
PINE RIDGE     CLEAR     53  45  74 VRB3      29.63F
SPEARFISH      FAIR      68  30  24 SW23G33   29.54S
WINNER         FAIR      58  47  66 S24G33    29.63F
$$

SDZ004>011-016>023-039-040-201500-
NORTHEAST SOUTH DAKOTA

CITY           SKY/WX    TMP DP  RH WIND       PRES   REMARKS
ABERDEEN       CLEAR     56  48  74 S21       29.61F
WATERTOWN      CLOUDY    53  49  86 S12       29.71F
BROOKINGS      SUNNY     54  47  77 S20       29.76F
SISSETON         N/A     63  48  58 S15       29.64F
$$

SDZ017-020-022-023-036>040-048>070-201500-
SOUTHEAST SOUTH DAKOTA

CITY           SKY/WX    TMP DP  RH WIND       PRES   REMARKS
SIOUX FALLS    MOSUNNY   58  51  78 S21G29    29.80F
HURON          SUNNY     55  48  77 S17       29.68S
CHAMBERLAIN    CLEAR     60  49  67 S9G16     29.65S
MITCHELL       SUNNY     58  48  69 S16       29.71F
YANKTON        MOSUNNY   61  50  67 S21       29.77F
$$

ABBREVIATIONS USED IN REMARKS
   TC - TEMPERATURE IN CELSIUS
  WCI - WIND CHILL INDEX
   HX - HEAT INDEX
  VSB - VISIBILITY




USA.gov is the U.S. government's official web portal to all federal, state and local government web resources and services.